GFSMA_con_3kmhel_153.txt.gz
Helicity
102 98 102 97 84 92 104 122 96 104 129 136 104 69 80 85 47 39 40 175 160 132 99 93 80 68 82 92 98 95 89 73 61 37 24 36 26 18 11 6 37 51 62
101 120 133 131 121 112 112 120 129 147 93 127 144 129 140 96 82 82 42 129 149 135 106 90 93 73 69 97 98 96 84 75 58 54 36 43 41 30 41 60 58 57 68
92 99 116 138 146 152 125 112 116 119 135 112 133 148 181 150 98 99 106 62 137 126 141 99 97 91 95 87 93 92 91 86 70 57 63 48 61 63 73 76 66 67 62
121 116 136 139 153 200 212 205 173 151 143 148 120 121 154 195 146 102 114 120 80 128 119 132 99 100 106 87 84 85 87 70 89 76 77 82 79 87 73 78 66 64 59
86 99 120 157 199 193 217 208 214 236 155 149 151 135 119 150 181 178 122 136 136 77 151 123 137 90 112 113 87 83 75 79 73 82 79 90 92 97 99 74 61 51 57
109 151 106 120 147 165 199 218 208 218 215 162 147 151 131 129 142 200 209 142 170 109 114 148 131 140 117 109 106 89 84 73 78 76 93 95 103 102 99 87 77 60 50
111 103 119 135 133 163 194 258 322 335 208 159 133 139 146 107 149 141 241 222 171 140 153 104 181 171 160 136 122 99 78 74 74 82 84 103 103 99 98 93 81 74 69
97 114 137 124 157 146 178 190 220 249 293 221 217 179 210 154 140 140 139 214 176 154 182 146 118 143 147 200 148 114 94 74 69 74 87 97 109 103 87 83 84 79 76
132 126 130 116 114 143 158 171 160 177 191 266 261 192 232 253 220 141 127 199 320 270 250 155 164 132 159 145 180 185 157 97 59 71 76 98 101 108 102 84 77 82 86
147 161 146 145 116 104 109 116 128 159 180 175 208 243 206 244 256 188 169 157 222 288 300 184 167 162 163 171 132 200 204 155 97 67 67 91 97 94 109 100 92 87 87
170 160 149 162 134 132 115 114 112 100 133 167 182 206 217 244 171 250 212 211 278 251 277 286 113 139 134 156 158 209 231 198 164 121 93 92 86 90 94 106 105 100 98
131 148 156 141 131 107 90 79 93 100 77 94 123 140 189 245 270 197 211 180 203 198 224 249 196 127 161 165 174 170 203 218 171 158 127 120 117 103 93 104 114 109 105
98 147 138 118 111 102 85 83 88 91 103 102 95 118 114 143 184 171 166 250 196 261 252 202 187 138 172 174 180 144 196 228 203 157 148 137 144 141 132 116 111 109 113
34 47 105 144 106 110 110 117 100 91 76 71 76 107 101 91 89 133 149 185 226 241 276 303 280 126 113 106 179 165 146 157 197 169 159 162 159 142 151 148 132 120 116
-24 -32 38 142 139 141 147 130 128 140 135 209 183 258 162 101 84 81 81 165 209 304 225 88 180 277 185 329 355 277 365 314 283 230 177 137 133 114 101 95 115 130 125
-81 -55 -16 76 99 131 158 148 185 248 256 294 323 268 317 250 236 162 212 258 151 138 111 115 439 509 563 528 609 523 450 595 570 539 446 364 283 259 224 200 163 164 144
-90 -120 -111 -30 101 148 175 179 201 290 343 443 379 431 383 339 233 223 273 329 321 235 159 247 375 534 585 688 666 703 626 464 630 679 613 549 491 536 523 507 480 441 412
-41 -65 -104 -82 -24 66 132 204 251 276 414 527 511 478 478 350 355 308 310 336 300 335 222 342 432 748 674 503 683 497 699 540 552 644 684 611 413 430 514 604 672 661 573
26 -5 -9 -41 -49 -18 56 83 -23 101 256 479 663 630 518 398 383 471 388 377 351 352 500 424 227 311 510 723 603 475 656 769 659 649 707 667 517 474 460 482 584 650 641
23 21 20 29 28 4 -9 -81 -40 -5 69 189 372 603 574 579 443 452 275 430 439 485 548 673 702 550 471 485 522 554 475 237 854 947 751 763 562 514 451 441 494 576 597
12 6 4 17 31 54 43 -10 -5 17 16 13 76 194 390 305 380 470 491 437 348 379 579 541 423 730 727 616 566 651 417 407 182 425 473 643 693 515 486 456 386 490 524
19 19 24 21 19 36 44 54 29 36 75 91 80 67 81 128 133 168 150 308 326 369 428 416 414 424 644 624 454 388 471 330 445 276 416 176 241 222 437 290 316 352 455
33 34 36 35 31 25 49 30 37 23 59 82 118 133 118 137 125 73 109 126 183 191 172 90 163 163 225 242 191 197 266 181 96 124 74 16 88 109 126 103 46 245 309
35 33 31 31 30 49 67 34 12 0 9 44 95 104 113 132 156 92 60 77 107 117 122 102 80 90 123 159 159 114 116 81 66 86 134 74 99 114 138 142 162 177 211
18 18 19 35 48 55 83 71 0 7 8 21 21 59 67 89 121 102 60 66 76 79 70 92 89 99 112 139 130 96 158 123 78 59 111 82 115 168 136 135 159 288 217
1 -8 1 14 43 52 107 105 50 0 12 3 10 26 85 75 96 96 31 8 10 -1 -23 -7 10 22 41 49 87 84 85 57 69 13 19 24 44 33 52 113 168 99 110

GFSMA_con_3kmhel_159.txt.gz
Helicity
30 12 10 16 33 59 73 60 62 64 86 116 105 114 69 53 76 112 82 63 106 180 191 206 183 148 161 174 163 147 131 123 119 109 94 87 47 5 -22 -47 -49 1 47
49 28 16 30 41 48 48 41 51 64 70 80 83 102 68 61 45 69 104 51 110 196 214 206 181 157 159 181 173 152 131 127 114 101 68 66 22 -20 -57 -7 4 18 46
45 22 4 1 0 -6 31 40 50 72 87 106 108 83 106 67 46 50 52 92 129 163 186 197 215 197 181 181 178 152 138 127 121 99 68 57 35 14 0 -1 12 30 69
85 32 15 9 19 32 57 59 65 94 112 115 95 127 118 110 62 60 66 75 143 161 142 188 227 235 215 191 176 159 139 136 130 106 79 44 41 29 17 18 34 63 91
110 64 28 32 68 70 82 108 115 120 100 94 77 78 109 136 99 57 95 93 94 154 204 139 214 249 235 196 183 165 143 135 121 113 90 72 38 40 54 46 57 79 99
69 42 31 45 28 42 65 85 109 122 137 126 89 77 70 87 91 83 74 108 108 113 173 195 198 255 275 217 195 171 148 135 119 97 102 80 70 49 57 71 76 95 96
46 54 24 10 44 63 76 92 105 122 148 168 147 96 78 72 78 66 54 63 87 126 137 188 232 270 266 256 220 187 148 129 120 105 101 100 92 86 77 84 90 95 109
59 62 51 43 54 67 88 101 123 131 129 143 169 166 85 94 91 75 101 72 58 85 136 126 202 226 245 292 248 209 154 132 124 126 120 116 114 114 116 97 102 107 100
18 23 39 32 57 70 70 85 99 123 135 145 156 186 181 175 146 144 223 156 111 102 83 120 150 198 254 277 290 228 179 177 149 139 141 140 151 132 121 125 109 112 106
-23 -6 -9 12 35 49 67 73 85 88 93 113 133 148 130 141 122 28 116 199 242 199 145 101 63 196 169 84 181 203 175 183 194 168 166 162 163 155 133 125 125 111 123
-44 -14 -11 5 24 35 58 82 113 107 91 89 93 109 159 134 94 79 21 43 99 136 226 123 143 146 134 299 360 71 125 201 218 202 173 172 164 166 153 135 128 130 115
-61 -29 -14 4 29 53 63 79 101 113 97 83 82 102 99 125 134 101 86 52 63 -1 54 165 207 180 188 277 163 41 77 112 188 252 226 186 183 167 162 144 142 140 131
-46 -55 -51 -36 1 44 60 73 86 113 101 84 84 63 45 55 58 58 67 0 -26 2 3 38 51 119 133 140 235 150 86 149 178 215 227 224 199 183 166 142 138 136 129
-27 -56 -77 -68 -65 -39 2 37 62 77 86 99 101 93 63 35 13 50 81 92 29 -3 6 -15 58 155 207 277 251 248 274 259 168 133 164 228 242 223 185 164 141 136 129
-14 -15 -39 -69 -77 -60 -65 -36 26 99 93 103 103 104 93 84 80 57 95 96 100 54 99 103 57 179 211 211 298 280 269 351 291 161 147 195 183 198 214 193 167 142 139
-8 1 4 -15 -38 -42 -49 -58 -46 39 96 126 130 156 164 143 141 137 132 132 131 105 101 64 85 181 182 241 354 333 311 253 389 318 358 394 324 247 190 241 246 272 249
-4 13 6 23 16 -27 -37 -62 -82 -31 59 122 172 203 231 226 226 272 199 167 156 153 107 170 205 216 256 376 412 396 316 261 253 473 575 525 671 727 558 555 524 484 459
-13 13 42 47 35 13 -14 -8 -33 -58 -72 23 154 212 271 304 312 352 303 253 243 254 231 234 339 360 440 355 523 566 527 422 480 574 671 742 788 765 611 612 604 571 586
-50 8 50 74 48 6 9 -4 -16 -26 -29 -44 -16 20 101 229 321 313 408 387 360 462 498 510 470 386 586 740 457 443 509 690 587 736 784 824 846 917 837 546 600 540 590
-36 8 46 70 87 16 -22 15 26 14 -6 -8 23 7 -3 84 191 258 275 373 486 471 504 602 544 519 493 744 673 677 640 442 483 731 798 659 444 526 642 772 680 593 611
17 15 42 71 73 56 -1 -12 1 28 56 44 35 45 46 5 25 52 48 151 228 310 456 455 493 637 646 626 544 563 473 443 458 484 360 602 614 497 437 695 694 724 598
51 40 60 61 66 60 38 30 -2 -9 15 68 73 54 34 64 43 69 74 75 69 68 99 221 255 320 428 415 451 402 309 250 250 358 231 431 340 426 412 366 482 300 433
35 39 37 37 50 34 58 34 23 -15 -1 10 37 41 48 41 65 44 51 77 104 105 85 57 113 170 141 234 218 233 247 167 137 209 145 171 238 277 169 237 282 217 197
8 13 13 18 17 31 53 39 24 -15 -12 6 4 6 18 32 49 35 35 64 64 70 77 64 79 101 108 132 109 96 76 0 41 152 138 154 198 130 47 40 111 124 191
0 -10 -18 -12 -2 13 57 44 9 -2 -8 10 19 8 1 22 69 60 24 21 41 54 63 82 79 97 115 145 170 140 166 120 77 67 195 64 141 121 93 65 108 157 199
6 -11 -11 -22 21 9 39 37 11 -14 6 12 34 36 64 50 81 87 41 37 31 33 34 60 76 98 115 127 169 132 119 113 71 63 107 51 107 115 72 94 151 129 200

GFSMA_con_3kmhel_162.txt.gz
Helicity
17 8 11 9 -10 -17 -17 -11 -9 5 25 52 81 93 88 95 79 85 83 26 16 -2 4 33 97 189 189 192 168 172 190 153 130 121 130 124 121 100 29 11 -11 -6 34
40 19 4 8 4 7 20 15 5 -11 -1 33 53 80 95 102 100 79 66 43 38 45 21 -2 70 144 178 196 188 171 187 173 136 124 118 115 110 73 15 -6 -36 -7 33
49 27 5 -13 -2 3 22 43 63 75 61 64 71 61 70 88 91 106 80 59 53 50 55 41 30 115 164 197 203 186 182 190 152 125 123 107 91 69 11 -22 -61 -19 23
67 24 11 6 6 -2 5 18 37 60 71 75 68 55 70 76 75 101 99 81 64 65 49 79 63 63 178 226 214 200 188 190 168 130 117 104 75 57 8 -59 -30 -12 10
65 36 33 29 28 21 51 71 96 91 81 77 72 61 49 69 65 82 91 103 123 101 90 74 82 101 115 169 204 203 202 187 172 147 117 96 82 46 31 7 10 34 38
19 -8 1 9 9 35 74 104 106 114 123 121 114 96 70 51 68 100 93 82 93 126 120 109 99 131 127 132 139 199 191 192 172 153 140 101 81 65 45 53 38 32 61
12 -2 -13 -2 16 27 50 68 73 89 114 125 97 77 66 105 78 97 113 109 72 85 93 89 141 135 161 156 141 157 192 173 176 166 163 129 91 74 63 40 64 57 60
-3 -3 -5 5 21 30 69 105 114 93 108 136 101 96 32 55 195 210 148 149 151 140 140 90 66 118 137 194 189 141 187 195 167 169 163 150 122 95 85 90 68 85 92
-38 -38 -22 -16 -3 17 41 80 101 133 107 157 169 136 96 149 87 186 341 271 315 312 221 224 140 69 109 145 177 183 218 233 180 163 156 149 137 127 108 104 110 92 105
-58 -75 -74 -64 -53 -19 23 52 84 107 114 125 155 150 145 116 87 6 157 229 242 246 279 292 268 190 94 124 123 164 259 216 176 168 157 139 132 139 135 135 133 129 114
-38 -54 -83 -82 -66 -44 -1 36 66 95 93 91 119 135 149 120 98 80 12 2 117 184 250 365 365 306 263 121 92 111 112 125 21 37 155 150 140 134 134 152 162 145 135
4 -15 -65 -92 -87 -76 -56 -7 50 82 93 101 103 107 127 116 120 115 67 28 50 140 97 189 159 203 264 219 213 155 103 196 100 195 81 151 158 154 148 152 157 156 146
26 27 -9 -55 -78 -93 -86 -64 0 55 92 95 101 98 72 83 75 79 68 62 18 42 142 68 49 56 151 236 239 328 322 296 94 80 85 23 159 172 182 175 167 159 153
17 28 22 -8 -26 -47 -84 -96 -67 -11 47 71 97 89 88 71 57 59 60 59 43 45 72 158 75 58 47 129 201 340 284 250 194 50 109 113 106 176 204 209 199 183 167
11 32 26 21 5 0 -26 -87 -87 -19 12 43 108 103 66 82 83 88 85 77 61 70 86 126 115 144 59 101 205 149 225 306 289 208 71 48 105 135 173 188 214 208 183
21 22 23 26 6 0 -6 -16 -60 -82 -38 34 60 133 122 98 90 109 104 106 117 111 78 111 138 154 105 117 212 225 209 218 416 432 339 313 309 131 234 190 190 161 177
28 28 9 16 28 16 -10 -1 -10 -11 -45 -26 36 103 163 120 74 97 111 144 165 119 131 155 195 235 216 191 242 196 259 224 304 509 573 476 387 372 473 506 340 278 235
38 45 37 16 22 11 20 14 13 -5 -1 15 -21 -34 73 112 125 114 90 178 227 245 262 266 332 343 349 346 360 312 307 319 325 496 485 617 761 676 656 704 697 641 831
47 55 66 64 14 -10 -3 10 4 8 8 9 27 10 -13 1 86 112 114 109 169 328 442 403 390 438 382 475 361 416 399 452 484 501 525 594 639 645 670 721 748 853 829
36 67 86 78 5 -39 -5 14 25 11 11 9 2 4 1 -4 5 13 80 133 145 156 291 452 521 536 556 543 365 333 408 493 469 374 376 406 531 661 641 680 743 759 656
32 32 62 85 49 -11 4 7 13 23 34 19 16 -1 -6 6 30 40 -3 27 81 115 151 190 333 466 501 470 504 325 279 327 445 493 418 437 350 364 554 594 614 777 955
29 38 40 45 39 12 44 38 4 2 4 48 35 16 3 19 3 42 56 81 87 41 90 90 100 180 392 385 345 355 268 175 225 384 344 393 304 322 314 296 377 597 658
18 25 20 20 27 10 34 24 11 -17 -14 -22 11 16 13 8 1 -9 26 45 85 97 77 38 64 86 71 136 148 144 82 111 144 208 148 226 272 193 230 233 189 256 252
24 24 14 3 7 14 35 21 3 -17 -13 -7 -30 -18 12 29 34 11 -7 11 36 62 70 35 54 81 97 80 73 64 50 -8 68 144 105 125 171 148 95 116 182 192 182
15 8 22 30 9 17 41 28 2 -18 -11 3 2 -7 -13 25 83 74 39 32 35 35 50 95 101 105 113 141 154 132 162 72 61 118 204 66 149 83 63 93 101 195 230
11 7 21 12 40 22 45 39 11 -18 -4 -16 -4 -16 72 47 89 100 56 53 55 63 73 93 104 130 140 150 214 172 125 83 75 70 214 65 133 109 75 97 142 158 167

GFSMA_con_3kmhel_165.txt.gz
Helicity
-8 -23 -22 -19 -30 -26 -25 -11 4 17 36 60 80 88 83 91 102 93 98 69 60 102 76 33 22 12 60 110 118 127 134 145 154 157 153 132 138 125 112 105 63 32 -1
9 7 -5 -12 -10 -15 -17 -22 -26 -26 -6 12 32 86 95 80 89 98 106 96 69 57 94 83 45 33 18 73 130 150 134 147 154 156 168 149 136 131 114 98 57 37 -4
36 11 4 15 23 10 2 4 10 24 27 19 15 20 51 93 97 97 95 95 80 73 75 99 97 61 27 29 108 154 166 155 158 162 172 166 151 127 109 74 41 15 0
82 39 19 10 13 5 19 29 29 19 19 30 43 60 68 67 85 109 103 96 96 73 48 62 81 81 94 26 77 129 169 181 176 169 180 172 165 140 106 81 39 -6 -25
65 44 28 29 30 25 29 40 52 50 42 36 22 38 55 77 91 97 96 107 91 93 84 64 78 69 82 93 33 112 117 186 196 175 184 184 170 154 115 84 49 29 -5
25 2 -12 -2 6 15 22 60 86 86 66 62 54 58 41 69 85 104 127 114 109 105 85 93 73 74 62 100 94 57 82 115 183 179 183 189 177 161 136 85 58 31 58
-2 -12 -17 -15 -8 -15 22 52 42 71 76 98 37 38 60 127 134 146 144 159 167 173 151 122 129 80 51 51 72 74 92 92 135 193 185 195 181 164 150 115 70 52 59
9 -28 -40 -60 -48 -35 -3 42 70 58 59 103 9 34 3 110 245 304 212 308 325 364 330 264 175 159 120 80 49 76 78 106 117 164 188 194 182 167 159 141 107 77 100
11 -31 -51 -76 -88 -79 -54 -17 22 66 63 129 147 38 27 109 63 179 346 268 317 305 340 383 393 362 269 142 84 67 135 124 108 129 135 179 184 173 167 160 152 128 98
37 11 -32 -55 -86 -103 -68 -38 -6 30 54 98 120 165 132 95 28 6 128 255 213 237 305 317 326 367 373 314 224 97 39 155 169 209 140 150 132 152 156 157 145 158 141
45 44 15 -26 -48 -90 -100 -73 -29 4 21 53 103 134 159 145 95 83 53 107 178 174 198 248 243 208 259 333 295 363 155 138 139 138 134 466 271 71 102 146 149 144 151
48 63 55 26 -6 -42 -74 -107 -90 -41 -2 32 70 101 108 97 127 94 44 49 89 201 200 205 160 132 141 189 258 316 404 258 155 101 93 68 219 183 22 103 137 144 146
60 71 56 42 20 -8 -42 -68 -98 -101 -52 -7 55 82 87 95 95 100 85 66 80 73 138 186 147 118 95 117 132 216 364 413 246 136 93 84 97 68 10 82 119 142 147
43 48 45 28 20 10 -7 -32 -48 -84 -83 -30 38 96 86 78 71 70 64 70 73 56 74 155 151 202 38 66 103 132 220 389 376 328 191 194 101 83 168 99 51 106 162
44 57 53 41 31 25 13 -16 -21 -24 -74 -81 -39 34 69 96 80 74 69 70 55 71 109 121 153 198 193 183 68 74 175 296 363 440 362 212 123 124 91 173 31 53 96
52 54 55 50 38 32 28 26 16 4 -15 -34 -79 -59 -5 63 86 88 94 81 86 69 95 114 110 112 186 190 194 139 142 241 357 378 450 511 467 315 245 233 276 173 98
56 56 47 48 33 31 25 25 31 47 22 4 4 -26 -53 -28 41 108 99 88 84 95 100 132 197 232 253 215 238 219 231 210 235 295 267 388 604 610 460 334 161 237 101
46 40 27 22 15 20 22 18 29 36 40 24 -7 5 18 -34 -38 22 79 124 110 135 195 231 250 325 336 305 231 262 292 307 263 329 257 334 400 470 673 508 398 348 122
71 61 38 21 11 0 12 24 19 15 22 40 24 23 1 9 9 -28 -34 41 105 110 99 104 202 308 305 425 372 241 269 327 343 363 312 333 245 323 477 705 756 640 661
80 86 59 5 -25 -19 -1 -11 15 19 18 21 5 11 18 3 -3 -7 9 1 5 50 110 129 150 157 168 311 338 358 309 262 278 361 383 403 413 418 416 424 440 515 644
40 41 56 45 -3 -6 1 -1 -1 4 -8 -5 -11 -18 -22 -1 35 39 -9 9 23 22 1 48 135 168 181 169 209 245 242 198 257 313 272 372 344 321 327 372 405 383 365
34 32 43 37 26 11 33 30 10 -3 -25 -18 -22 -23 -25 -11 -25 17 40 73 51 27 44 29 30 44 102 97 76 62 109 138 121 252 223 288 292 311 347 317 370 370 348
26 30 24 27 29 14 29 29 19 -12 -16 -23 -23 -25 -15 -21 -20 -33 -2 22 64 81 40 14 34 55 35 -6 10 33 0 17 93 120 104 143 171 154 162 213 303 369 224
36 34 31 19 9 17 28 20 11 -3 -11 -20 -26 -9 -4 10 15 -11 -9 3 14 26 40 14 18 41 55 51 25 18 2 -27 23 88 97 49 96 48 56 111 221 251 234
46 42 38 34 23 4 37 24 10 -6 2 10 8 -8 17 29 75 63 16 30 41 41 35 69 73 84 103 134 137 93 85 45 11 36 138 26 73 17 14 75 134 194 140
52 39 45 38 49 23 48 58 26 -17 -9 -22 -16 -6 61 54 102 106 26 23 36 38 50 91 111 110 99 104 147 91 73 26 -2 19 97 14 70 45 17 24 50 109 126

GFSMA_con_3kmhel_171.txt.gz
Helicity
50 41 40 37 31 26 24 24 29 33 43 54 61 70 86 78 68 71 82 75 80 100 112 127 154 123 101 84 62 54 61 82 101 98 124 128 113 102 98 89 91 91 112
57 47 44 42 36 26 16 6 14 14 23 40 57 77 80 89 84 65 55 58 72 89 107 115 110 148 147 126 117 72 60 76 98 110 119 145 134 125 111 92 89 103 126
76 57 39 26 17 -2 -8 -12 -13 -15 -8 10 38 49 61 70 83 99 89 66 63 58 78 108 114 117 137 155 159 135 80 64 90 111 118 131 155 152 134 120 98 99 125
110 67 51 42 34 4 -13 -25 -33 -30 -18 -12 5 29 54 61 63 79 100 111 100 100 91 82 130 138 148 147 128 143 119 71 71 101 120 140 145 160 163 148 129 117 119
89 50 40 35 20 -4 -11 -12 -27 -40 -38 -25 -20 4 20 60 96 103 105 120 128 113 114 113 102 132 139 145 159 173 166 121 71 80 111 146 164 182 172 162 161 155 132
93 78 58 50 25 9 -0 -9 -20 -47 -73 -48 -26 -26 20 38 79 160 213 194 204 209 205 174 169 152 143 166 158 140 163 173 135 70 95 127 146 182 193 185 166 163 161
82 79 56 49 34 24 15 1 -17 -20 -71 -39 -87 -30 16 74 144 252 207 215 328 284 306 294 254 248 229 249 208 221 159 158 151 137 80 104 135 169 185 192 201 186 171
87 75 71 59 56 31 33 19 -0 -37 -112 -74 -88 -138 -50 13 127 211 241 244 279 282 311 297 285 300 262 259 268 330 350 292 286 196 139 85 107 137 170 177 186 178 169
92 80 76 58 55 46 37 20 -5 -19 -65 -139 -118 -109 -111 -25 51 147 227 224 215 259 251 269 252 258 278 255 259 260 368 322 276 237 218 170 98 120 165 169 204 202 171
88 86 83 72 60 40 50 29 3 -19 -48 -72 -134 -92 -80 -45 -33 -7 128 174 204 196 193 172 192 209 252 215 251 312 314 352 321 278 231 212 178 110 123 148 182 169 168
101 97 84 76 67 48 43 36 21 15 -24 -47 -75 -90 -111 -48 41 3 36 169 234 237 208 176 185 180 204 196 184 252 288 287 332 279 258 206 189 159 143 116 310 123 228
79 89 74 65 64 57 54 39 27 24 -8 -44 -65 -83 -78 -53 -21 7 39 105 160 196 173 170 213 181 163 167 196 232 257 247 269 322 286 267 250 163 94 74 119 276 228
82 94 74 66 56 52 47 34 38 31 17 -7 -28 -64 -74 -52 -38 -21 1 40 87 143 143 59 133 187 136 144 184 211 232 264 249 332 351 371 376 347 213 71 84 176 210
80 71 63 58 66 63 45 39 32 26 25 14 5 -33 -66 -78 -52 -41 -22 8 50 49 52 119 66 132 121 125 164 242 193 247 250 271 309 398 456 460 443 381 172 124 97
66 73 70 70 64 53 48 41 36 37 26 20 18 -0 -34 -72 -86 -72 -34 -18 5 43 58 34 65 66 55 74 136 132 124 227 237 324 295 277 361 493 543 510 561 527 431
88 78 68 65 60 51 44 37 32 26 30 24 18 17 -4 -32 -63 -87 -92 -42 -4 -8 34 10 -11 -0 41 21 94 126 123 184 264 290 269 304 310 325 479 526 479 549 494
81 72 68 69 66 62 48 42 40 33 32 26 16 18 4 2 -30 -42 -70 -98 -71 -7 7 10 34 58 65 91 67 62 81 110 152 317 365 279 342 261 317 400 368 411 464
62 73 68 68 63 58 50 44 43 38 38 29 17 6 11 -14 -5 -15 -43 -50 -65 -76 -72 11 14 43 81 115 68 76 66 40 76 181 290 384 361 309 340 323 471 443 367
59 57 63 67 58 47 42 41 36 33 26 16 5 9 8 7 7 -11 -21 -35 -44 -45 -49 -62 -48 -34 -6 79 87 70 89 76 86 140 153 265 365 249 338 352 292 407 442
63 57 51 41 30 37 36 33 32 28 21 17 10 11 10 15 16 -2 -5 -6 -16 -27 -19 -20 -33 -27 -42 -27 4 46 63 81 106 118 131 138 188 248 265 283 348 367 358
67 57 55 43 43 39 28 23 28 24 12 10 11 2 9 19 40 35 7 10 6 2 1 -0 -3 6 16 -4 -13 -18 -5 -7 29 96 118 139 121 150 150 202 252 310 342
64 60 55 56 47 35 40 33 15 20 22 25 20 13 14 27 15 35 39 68 52 30 31 21 19 29 42 31 17 -2 -1 -15 -6 -3 51 109 101 91 134 104 191 218 287
65 59 58 51 48 40 35 41 20 18 25 27 26 20 20 16 17 10 29 36 61 67 39 26 31 36 44 51 33 30 15 3 -2 10 -4 7 41 85 71 106 167 156 164
71 71 64 51 45 42 42 39 30 29 27 31 39 39 37 45 48 21 23 32 29 39 47 22 31 32 43 50 24 11 10 -1 8 26 63 -0 13 4 15 27 99 108 132
81 77 63 58 55 61 56 42 30 28 30 32 35 49 41 48 64 50 31 28 21 14 15 47 50 62 71 107 101 28 61 31 14 25 74 25 46 18 -1 14 47 86 95
82 65 68 63 61 50 64 66 38 37 44 39 45 40 73 58 69 65 38 32 37 35 30 39 49 58 58 67 102 72 58 53 35 16 66 41 57 42 10 26 32 64 59